Location: Buisson
(44.2787°N, 4.9969°E)
Time: 15:31:36
(UTC+00:00)

N. Korean satellite - Visible Passes

Search period start: 25 September 2021 00:00
Search period end: 05 October 2021 00:00
Orbit: 449 x 498 km, 97.3° (Epoch: 24 September)

Date Brightness Start Highest point End Pass type
(mag) Time Alt. Az. Time Alt. Az. Time Alt. Az.
26 Sep 8.0 04:38:38 10° NNE 04:42:03 42° E 04:45:28 10° S visible
27 Sep 9.5 04:11:26 10° NE 04:14:07 20° E 04:16:49 10° SE visible
29 Sep 7.3 04:48:18 10° NNE 04:51:51 58° E 04:55:24 10° S visible
30 Sep 9.0 04:20:52 10° NE 04:23:56 26° E 04:26:59 10° SSE visible
01 Oct 10.0 03:54:16 10° ENE 03:55:53 12° E 03:57:30 10° ESE visible
02 Oct 6.7 04:57:54 10° NNE 05:01:32 79° ESE 05:05:10 10° S visible
03 Oct 8.5 04:30:17 10° NNE 04:33:37 34° E 04:36:57 10° SSE visible
04 Oct 9.8 04:03:13 10° NE 04:05:35 16° E 04:07:56 10° SE visible
